Location: Newark
(37.9800°N, 91.3000°W)
Time: 06:22:06
(UTC+00:00)

NOAA 19 - Pass Details

Date: 07 December 2019
Orbit: 840 x 862 km, 99.2° (Epoch: 20 January)

Event Time Altitude Azimuth Distance (km) Brightness Sun altitude
Rises 23:28:49 0° 183° (S) 3,411 8.7 -8.5°
Reaches altitude 10° 23:31:18 10° 190° (S) 2,482 8.1 -9.0°
Maximum altitude 23:36:29 42° 261° (W) 1,208 6.7 -10.0°
Drops below altitude 10° 23:41:45 10° 331° (NNW) 2,505 7.8 -10.9°
Sets 23:44:16 0° 339° (NNW) 3,447 8.4 -11.4°
